Location: ????
(30.2663°N, 31.2484°E)
Time: 13:47:31
(UTC+00:00)

Cosmos 1633 Rocket - Pass Details

Date: 27 September 2022
Orbit: 607 x 622 km, 82.5° (Epoch: 27 November)

Event Time Altitude Azimuth Distance (km) Brightness Sun altitude
Rises 02:25:58 0° 352° (N) 2,870 6.5 -18.0°
Reaches altitude 10° 02:28:12 10° 351° (N) 1,961 5.6 -17.6°
Maximum altitude 02:32:31 77° 266° (W) 626 2.9 -16.7°
Drops below altitude 10° 02:36:49 10° 180° (S) 1,948 5.5 -15.7°
Sets 02:39:02 0° 179° (S) 2,848 6.4 -15.3°
